RYR58NF GMFF-LIME

Flight info

Callsign RYR58NF
Flight time 2h 32m
Altitude 36000
Route FES UG850 BERUM N860 GONZA DCT AMR N860 RESTU DCT ALT DCT SUMMO DCT MITOS DCT BRUNO DCT RUXET DCT IZA DCT TUKRO DCT ASMOT DCT PTC DCT MHN DCT MORSS DCT BAVON DCT ORKUM DCT ELSAG DCT ALG DCT OLBEK DCT IBROS DCT NEMIT DCT GINAR DCT OSMOX DCT LOMED DCT IPLUB DCT OSBUL
Aircraft B738/M-SDE2E3FGHIRWXY/LB1

Departure

Time 2026-05-08 15:01
Airport Fes Saïss International Airport (GMFF)

Arrival

Time 2026-05-08 17:33
Airport Il Caravaggio International Airport (LIME)
Time Latitude Longitude Altitude Speed Heading
2026-05-08 14:29 33.92977 -4.98204 1856 ft 0 kts
2026-05-08 14:53 33.92966 -4.98204 1856 ft 4 kts 358°
2026-05-08 14:53 33.92939 -4.98202 1856 ft 4 kts 350°
2026-05-08 14:54 33.92913 -4.98194 1855 ft 4 kts 337°
2026-05-08 14:54 33.92900 -4.98186 1855 ft 1 kts 329°
2026-05-08 14:56 33.92900 -4.98187 1855 ft 0 kts 329°
2026-05-08 14:57 33.92904 -4.98190 1855 ft 2 kts 322°
2026-05-08 14:57 33.92912 -4.98209 1855 ft 4 kts 282°
2026-05-08 14:57 33.92904 -4.98256 1855 ft 8 kts 232°
2026-05-08 14:57 33.92832 -4.98272 1854 ft 13 kts 178°
2026-05-08 14:58 33.92738 -4.98305 1855 ft 16 kts 240°
2026-05-08 14:58 33.92732 -4.98436 1856 ft 17 kts 270°
2026-05-08 14:58 33.92730 -4.98593 1854 ft 21 kts 267°
2026-05-08 14:58 33.92722 -4.98762 1854 ft 20 kts 271°
2026-05-08 14:59 33.92732 -4.98930 1856 ft 20 kts 272°
2026-05-08 14:59 33.92736 -4.99314 1855 ft 23 kts 270°
2026-05-08 14:59 33.92776 -4.99446 1855 ft 15 kts 301°
2026-05-08 15:00 33.92742 -4.99500 1855 ft 11 kts 144°
2026-05-08 15:00 33.92734 -4.99409 1856 ft 17 kts 90°
2026-05-08 15:00 33.92734 -4.98944 1856 ft 94 kts 90°
2026-05-08 15:00 33.92730 -4.97867 1858 ft 160 kts 89°
2026-05-08 15:01 33.92730 -4.96435 2469 ft 173 kts 88°
2026-05-08 15:01 33.92681 -4.94986 3456 ft 173 kts 89°
2026-05-08 15:01 33.92582 -4.93478 4096 ft 189 kts 93°
2026-05-08 15:01 33.92474 -4.91764 4362 ft 220 kts 92°
2026-05-08 15:02 33.92371 -4.89826 4581 ft 244 kts 88°
2026-05-08 15:02 33.92675 -4.87766 4851 ft 261 kts 66°
2026-05-08 15:02 33.93696 -4.85918 5355 ft 272 kts 43°
2026-05-08 15:02 33.95261 -4.84645 6224 ft 275 kts 25°
2026-05-08 15:03 33.97069 -4.83770 6877 ft 286 kts 21°
2026-05-08 15:03 33.98955 -4.82934 7653 ft 290 kts 20°
2026-05-08 15:03 34.00884 -4.82096 8340 ft 299 kts 20°
2026-05-08 15:03 34.02860 -4.81238 9096 ft 305 kts 20°
2026-05-08 15:04 34.04889 -4.80364 9784 ft 314 kts 20°
2026-05-08 15:04 34.06985 -4.79460 10312 ft 328 kts 20°
2026-05-08 15:04 34.09122 -4.78365 10609 ft 347 kts 27°
2026-05-08 15:04 34.11278 -4.76972 11178 ft 356 kts 29°
2026-05-08 15:05 34.13457 -4.75500 11849 ft 361 kts 28°
2026-05-08 15:05 34.15663 -4.74021 12554 ft 366 kts 27°
2026-05-08 15:05 34.17911 -4.72536 13215 ft 372 kts 27°
2026-05-08 15:05 34.20206 -4.71036 13881 ft 377 kts 26°
2026-05-08 15:06 34.22530 -4.69531 14591 ft 379 kts 26°
2026-05-08 15:06 34.24865 -4.68027 15281 ft 383 kts 26°
2026-05-08 15:06 34.27233 -4.66504 15935 ft 387 kts 26°
2026-05-08 15:06 34.29622 -4.64969 16578 ft 392 kts 25°
2026-05-08 15:07 34.32044 -4.63411 17245 ft 395 kts 25°
2026-05-08 15:07 34.34480 -4.61843 17920 ft 399 kts 25°
2026-05-08 15:07 34.36946 -4.60255 18524 ft 403 kts 25°
2026-05-08 15:07 34.39421 -4.58616 19075 ft 409 kts 29°
2026-05-08 15:08 34.41778 -4.56626 19590 ft 415 kts 35°
2026-05-08 15:08 34.43299 -4.55211 19947 ft 419 kts 36°
2026-05-08 15:08 34.46391 -4.52265 20659 ft 425 kts 37°
2026-05-08 15:08 34.48718 -4.50033 21241 ft 428 kts 37°
2026-05-08 15:09 34.51066 -4.47792 21791 ft 432 kts 36°
2026-05-08 15:09 34.53441 -4.45544 22294 ft 435 kts 36°
2026-05-08 15:09 34.55844 -4.43284 22782 ft 440 kts 36°
2026-05-08 15:09 34.58278 -4.40998 23255 ft 444 kts 36°
2026-05-08 15:10 34.60731 -4.38699 23701 ft 448 kts 36°
2026-05-08 15:10 34.63217 -4.36372 24064 ft 454 kts 36°
2026-05-08 15:10 34.65727 -4.34020 24466 ft 457 kts 35°
2026-05-08 15:10 34.68261 -4.31647 24856 ft 462 kts 35°
2026-05-08 15:11 34.70814 -4.29250 25230 ft 466 kts 35°
2026-05-08 15:11 34.73391 -4.26829 25641 ft 470 kts 35°
2026-05-08 15:11 34.75977 -4.24393 26029 ft 473 kts 35°
2026-05-08 15:11 34.78561 -4.21962 26397 ft 477 kts 35°
2026-05-08 15:12 34.81232 -4.19443 26747 ft 481 kts 35°
2026-05-08 15:12 34.83879 -4.16946 27105 ft 485 kts 35°
2026-05-08 15:12 34.86518 -4.14453 27505 ft 488 kts 34°
2026-05-08 15:12 34.89216 -4.11906 27814 ft 492 kts 34°
2026-05-08 15:13 34.91974 -4.09302 28171 ft 496 kts 34°
2026-05-08 15:13 34.94666 -4.06749 28583 ft 498 kts 34°
2026-05-08 15:13 34.97406 -4.04152 28930 ft 501 kts 33°
2026-05-08 15:13 35.00161 -4.01538 29287 ft 504 kts 33°
2026-05-08 15:14 35.02945 -3.98898 29561 ft 508 kts 33°
2026-05-08 15:14 35.05747 -3.96239 29866 ft 512 kts 33°
2026-05-08 15:14 35.08561 -3.93563 30139 ft 515 kts 33°
2026-05-08 15:14 35.11397 -3.90864 30411 ft 517 kts 33°
2026-05-08 15:15 35.14229 -3.88156 30713 ft 519 kts 33°
2026-05-08 15:15 35.17078 -3.85441 30973 ft 521 kts 33°
2026-05-08 15:15 35.19940 -3.82721 31295 ft 523 kts 33°
2026-05-08 15:15 35.22832 -3.80015 31589 ft 522 kts 32°
2026-05-08 15:16 35.25726 -3.77341 31998 ft 520 kts 32°
2026-05-08 15:16 35.28615 -3.74683 32377 ft 519 kts 32°
2026-05-08 15:16 35.31498 -3.72030 32677 ft 520 kts 32°
2026-05-08 15:16 35.34395 -3.69357 32963 ft 521 kts 32°
2026-05-08 15:17 35.37288 -3.66677 33280 ft 521 kts 32°
2026-05-08 15:17 35.40180 -3.63991 33603 ft 521 kts 32°
2026-05-08 15:17 35.43071 -3.61304 33925 ft 521 kts 32°
2026-05-08 15:17 35.45947 -3.58625 34230 ft 521 kts 32°
2026-05-08 15:18 35.48844 -3.55921 34451 ft 522 kts 32°
2026-05-08 15:18 35.50752 -3.54139 34630 ft 522 kts 32°
2026-05-08 15:18 35.54580 -3.50563 34999 ft 521 kts 32°
2026-05-08 15:18 35.57489 -3.47848 35340 ft 518 kts 32°
2026-05-08 15:19 35.60308 -3.45208 35707 ft 515 kts 33°
2026-05-08 15:19 35.62224 -3.43410 35928 ft 513 kts 33°
2026-05-08 15:19 35.68875 -3.37174 35936 ft 517 kts 32°
2026-05-08 15:20 35.73643 -3.32694 35943 ft 513 kts 32°
2026-05-08 15:20 35.79262 -3.27408 35938 ft 510 kts 32°
2026-05-08 15:21 35.84883 -3.22102 35938 ft 509 kts 32°
2026-05-08 15:21 35.90511 -3.16704 35938 ft 509 kts 33°
2026-05-08 15:22 35.96041 -3.11365 35939 ft 509 kts 33°
2026-05-08 15:22 36.01622 -3.05978 35940 ft 509 kts 33°
2026-05-08 15:23 36.07205 -3.00585 35937 ft 510 kts 32°
2026-05-08 15:23 36.12800 -2.95171 35946 ft 511 kts 32°
2026-05-08 15:24 36.18411 -2.89732 35944 ft 512 kts 33°
2026-05-08 15:24 36.24025 -2.84276 35963 ft 514 kts 32°
2026-05-08 15:25 36.29656 -2.78783 35958 ft 515 kts 33°
2026-05-08 15:25 36.35289 -2.73272 35944 ft 516 kts 33°
2026-05-08 15:26 36.40928 -2.67748 35946 ft 517 kts 33°
2026-05-08 15:26 36.46565 -2.62215 35952 ft 516 kts 33°
2026-05-08 15:27 36.52195 -2.56680 35959 ft 516 kts 33°
2026-05-08 15:27 36.57814 -2.51146 35941 ft 515 kts 33°
2026-05-08 15:28 36.63436 -2.45596 35941 ft 515 kts 33°
2026-05-08 15:28 36.69036 -2.40058 35950 ft 514 kts 33°
2026-05-08 15:29 36.74629 -2.34515 35958 ft 514 kts 33°
2026-05-08 15:29 36.80223 -2.28960 35919 ft 514 kts 32°
2026-05-08 15:30 36.86024 -2.23903 35940 ft 501 kts 20°
2026-05-08 15:30 36.92203 -2.19895 35942 ft 500 kts 19°
2026-05-08 15:31 36.98386 -2.15897 35971 ft 501 kts 19°
2026-05-08 15:31 37.04565 -2.11817 35962 ft 503 kts 20°
2026-05-08 15:32 37.10742 -2.07697 35958 ft 504 kts 20°
2026-05-08 15:32 37.16928 -2.03562 35952 ft 504 kts 19°
2026-05-08 15:33 37.23130 -1.99420 35985 ft 505 kts 19°
2026-05-08 15:33 37.29357 -1.95338 35974 ft 504 kts 18°
2026-05-08 15:34 37.35624 -1.91366 35967 ft 504 kts 18°
2026-05-08 15:34 37.41882 -1.87390 35959 ft 504 kts 18°
2026-05-08 15:35 37.48129 -1.83389 35988 ft 504 kts 18°
2026-05-08 15:35 37.54369 -1.79373 35964 ft 503 kts 18°
2026-05-08 15:36 37.60593 -1.75361 35956 ft 501 kts 18°
2026-05-08 15:36 37.66799 -1.71359 35957 ft 500 kts 18°
2026-05-08 15:37 37.72980 -1.67369 35996 ft 500 kts 18°
2026-05-08 15:37 37.79171 -1.63354 35956 ft 500 kts 18°
2026-05-08 15:38 37.85366 -1.59335 35956 ft 500 kts 19°
2026-05-08 15:38 37.88337 -1.56976 35936 ft 512 kts 32°
2026-05-08 15:38 37.90937 -1.53845 35980 ft 521 kts 45°
2026-05-08 15:39 37.93072 -1.50110 35938 ft 526 kts 59°
2026-05-08 15:39 37.94672 -1.46008 36009 ft 526 kts 64°
2026-05-08 15:39 37.97661 -1.37540 35953 ft 527 kts 65°
2026-05-08 15:40 38.00664 -1.29063 35947 ft 527 kts 64°
2026-05-08 15:40 38.03736 -1.20622 35951 ft 527 kts 64°
2026-05-08 15:41 38.06850 -1.12130 35942 ft 527 kts 63°
2026-05-08 15:41 38.09916 -1.03741 35960 ft 527 kts 64°
2026-05-08 15:42 38.12990 -0.95293 35952 ft 528 kts 64°
2026-05-08 15:42 38.16059 -0.86824 35959 ft 527 kts 64°
2026-05-08 15:43 38.19119 -0.78355 36004 ft 527 kts 64°
2026-05-08 15:43 38.22176 -0.69872 35964 ft 527 kts 63°
2026-05-08 15:44 38.25222 -0.61405 35959 ft 526 kts 63°
2026-05-08 15:44 38.28206 -0.52936 35959 ft 525 kts 66°
2026-05-08 15:45 38.30915 -0.44322 35962 ft 523 kts 67°
2026-05-08 15:45 38.33602 -0.35725 35965 ft 522 kts 66°
2026-05-08 15:46 38.36332 -0.27170 35964 ft 521 kts 66°
2026-05-08 15:46 38.39151 -0.18669 35962 ft 520 kts 65°
2026-05-08 15:47 38.41992 -0.10187 35964 ft 520 kts 66°
2026-05-08 15:47 38.44811 -0.01671 35965 ft 521 kts 66°
2026-05-08 15:48 38.48956 0.11153 35966 ft 521 kts 66°
2026-05-08 15:49 38.51696 0.19733 35967 ft 522 kts 66°
2026-05-08 15:49 38.54423 0.28266 35968 ft 523 kts 66°
2026-05-08 15:50 38.57186 0.36926 35967 ft 523 kts 66°
2026-05-08 15:50 38.59928 0.45542 35963 ft 523 kts 66°
2026-05-08 15:51 38.62664 0.54160 35966 ft 523 kts 66°
2026-05-08 15:51 38.65410 0.62796 35995 ft 524 kts 66°
2026-05-08 15:52 38.68127 0.71384 35968 ft 525 kts 66°
2026-05-08 15:52 38.70843 0.80047 35951 ft 524 kts 66°
2026-05-08 15:53 38.73536 0.88703 35963 ft 523 kts 67°
2026-05-08 15:53 38.76222 0.97363 35965 ft 522 kts 67°
2026-05-08 15:54 38.78907 1.06007 35967 ft 521 kts 66°
2026-05-08 15:54 38.81576 1.14642 35951 ft 521 kts 67°
2026-05-08 15:55 38.84232 1.23268 35962 ft 520 kts 67°
2026-05-08 15:55 38.88210 1.36221 35973 ft 520 kts 67°
2026-05-08 15:56 38.90852 1.44875 35969 ft 521 kts 67°
2026-05-08 15:56 38.93463 1.53540 35942 ft 520 kts 68°
2026-05-08 15:57 38.96013 1.62219 35962 ft 519 kts 68°
2026-05-08 15:57 38.98553 1.70891 35958 ft 518 kts 68°
2026-05-08 15:58 39.01086 1.79542 35957 ft 517 kts 68°
2026-05-08 15:58 39.03611 1.88186 35962 ft 516 kts 68°
2026-05-08 15:59 39.06137 1.96827 35955 ft 516 kts 68°
2026-05-08 15:59 39.08643 2.05466 35967 ft 516 kts 69°
2026-05-08 16:00 39.11145 2.14116 36003 ft 516 kts 68°
2026-05-08 16:00 39.13648 2.22780 35975 ft 516 kts 69°
2026-05-08 16:01 39.16136 2.31448 35950 ft 515 kts 69°
2026-05-08 16:01 39.18616 2.40110 35966 ft 514 kts 69°
2026-05-08 16:02 39.21087 2.48751 35969 ft 513 kts 69°
2026-05-08 16:02 39.23543 2.57378 35973 ft 512 kts 69°
2026-05-08 16:03 39.25997 2.65996 35973 ft 512 kts 69°
2026-05-08 16:03 39.28458 2.74613 35974 ft 511 kts 69°
2026-05-08 16:04 39.30870 2.83190 35980 ft 511 kts 69°
2026-05-08 16:04 39.33284 2.91831 36008 ft 512 kts 70°
2026-05-08 16:05 39.35701 3.00484 35978 ft 512 kts 70°
2026-05-08 16:05 39.38109 3.09134 35963 ft 510 kts 70°
2026-05-08 16:06 39.40115 3.16357 35977 ft 509 kts 70°
2026-05-08 16:06 39.42528 3.24955 35977 ft 508 kts 66°
2026-05-08 16:07 39.45851 3.32898 35988 ft 504 kts 56°
2026-05-08 16:07 39.49534 3.40669 35980 ft 503 kts 56°
2026-05-08 16:08 39.53173 3.48413 36004 ft 503 kts 57°
2026-05-08 16:08 39.56763 3.56209 35990 ft 504 kts 57°
2026-05-08 16:09 39.60333 3.64029 35985 ft 504 kts 57°
2026-05-08 16:09 39.63897 3.71846 35991 ft 503 kts 57°
2026-05-08 16:10 39.67455 3.79663 35991 ft 503 kts 57°
2026-05-08 16:10 39.71015 3.87487 35998 ft 503 kts 57°
2026-05-08 16:11 39.74534 3.95262 36027 ft 502 kts 58°
2026-05-08 16:11 39.78068 4.03081 36014 ft 502 kts 58°
2026-05-08 16:12 39.81593 4.10902 36018 ft 500 kts 58°
2026-05-08 16:12 39.85107 4.18713 36018 ft 499 kts 59°
2026-05-08 16:13 39.87690 4.27054 36029 ft 498 kts 76°
2026-05-08 16:13 39.89412 4.35793 36013 ft 498 kts 76°
2026-05-08 16:14 39.91145 4.44509 36014 ft 497 kts 76°
2026-05-08 16:14 39.92932 4.53203 36010 ft 497 kts 76°
2026-05-08 16:15 39.94723 4.61914 36025 ft 497 kts 76°
2026-05-08 16:15 39.96530 4.70599 35999 ft 496 kts 74°
2026-05-08 16:16 39.98502 4.79203 36001 ft 495 kts 73°
2026-05-08 16:16 40.00503 4.87785 36005 ft 494 kts 73°
2026-05-08 16:17 40.02463 4.96361 35988 ft 493 kts 73°
2026-05-08 16:17 40.04402 5.04916 36008 ft 491 kts 74°
2026-05-08 16:18 40.06323 5.13469 36012 ft 490 kts 74°
2026-05-08 16:18 40.08237 5.22004 36018 ft 490 kts 74°
2026-05-08 16:19 40.10151 5.30538 36016 ft 490 kts 74°
2026-05-08 16:19 40.12055 5.39092 36006 ft 491 kts 74°
2026-05-08 16:20 40.13935 5.47605 36026 ft 491 kts 74°
2026-05-08 16:20 40.15832 5.56188 36020 ft 491 kts 75°
2026-05-08 16:21 40.17717 5.64767 36018 ft 491 kts 74°
2026-05-08 16:21 40.19593 5.73330 36006 ft 490 kts 75°
2026-05-08 16:22 40.21459 5.81885 36017 ft 488 kts 75°
2026-05-08 16:22 40.23319 5.90416 36021 ft 487 kts 75°
2026-05-08 16:23 40.25164 5.98945 36024 ft 487 kts 75°
2026-05-08 16:23 40.27005 6.07465 36024 ft 486 kts 75°
2026-05-08 16:24 40.28839 6.15986 36018 ft 486 kts 75°
2026-05-08 16:24 40.30666 6.24507 36026 ft 486 kts 75°
2026-05-08 16:25 40.32486 6.33021 36027 ft 486 kts 75°
2026-05-08 16:25 40.34297 6.41541 36025 ft 486 kts 75°
2026-05-08 16:26 40.36105 6.50070 36017 ft 485 kts 76°
2026-05-08 16:26 40.37902 6.58587 36027 ft 484 kts 76°
2026-05-08 16:27 40.39692 6.67100 36030 ft 484 kts 76°
2026-05-08 16:27 40.41472 6.75600 36029 ft 483 kts 76°
2026-05-08 16:28 40.43247 6.84109 36029 ft 483 kts 76°
2026-05-08 16:28 40.45012 6.92615 36027 ft 483 kts 76°
2026-05-08 16:29 40.46773 7.01129 36035 ft 483 kts 76°
2026-05-08 16:29 40.48530 7.09659 36029 ft 484 kts 76°
2026-05-08 16:30 40.50286 7.18221 36035 ft 485 kts 76°
2026-05-08 16:30 40.52038 7.26794 36032 ft 486 kts 76°
2026-05-08 16:31 40.53785 7.35377 36032 ft 487 kts 76°
2026-05-08 16:31 40.55531 7.43990 36031 ft 488 kts 76°
2026-05-08 16:32 40.56945 7.52703 36041 ft 486 kts 85°
2026-05-08 16:32 40.57651 7.61533 36014 ft 486 kts 86°
2026-05-08 16:33 40.58321 7.70379 36036 ft 486 kts 86°
2026-05-08 16:33 40.59050 7.79224 36025 ft 487 kts 85°
2026-05-08 16:34 40.59797 7.88026 36031 ft 487 kts 85°
2026-05-08 16:34 40.60549 7.96939 36026 ft 487 kts 85°
2026-05-08 16:35 40.61279 8.05808 36018 ft 487 kts 85°
2026-05-08 16:35 40.62013 8.14678 36034 ft 488 kts 85°
2026-05-08 16:36 40.62972 8.23464 36016 ft 490 kts 75°
2026-05-08 16:36 40.65589 8.31762 36032 ft 487 kts 60°
2026-05-08 16:37 40.68788 8.39542 36012 ft 486 kts 59°
2026-05-08 16:37 40.71994 8.47361 36020 ft 485 kts 60°
2026-05-08 16:38 40.75147 8.55208 36026 ft 484 kts 60°
2026-05-08 16:38 40.78278 8.63078 36025 ft 484 kts 60°
2026-05-08 16:39 40.81399 8.70948 36052 ft 484 kts 61°
2026-05-08 16:39 40.84511 8.78816 36028 ft 483 kts 61°
2026-05-08 16:40 40.87613 8.86670 36030 ft 481 kts 61°
2026-05-08 16:40 40.90700 8.94506 36032 ft 481 kts 61°
2026-05-08 16:41 40.93783 9.02351 36031 ft 481 kts 61°
2026-05-08 16:42 40.98383 9.14103 36021 ft 479 kts 61°
2026-05-08 16:42 41.01442 9.21949 36035 ft 480 kts 61°
2026-05-08 16:43 41.04496 9.29793 36029 ft 479 kts 61°
2026-05-08 16:43 41.07544 9.37650 36012 ft 479 kts 61°
2026-05-08 16:44 41.10591 9.45522 36008 ft 480 kts 61°
2026-05-08 16:44 41.13640 9.53399 36002 ft 480 kts 61°
2026-05-08 16:45 41.16674 9.61297 36035 ft 481 kts 61°
2026-05-08 16:45 41.19717 9.69230 36030 ft 482 kts 61°
2026-05-08 16:46 41.22758 9.77164 36033 ft 483 kts 61°
2026-05-08 16:46 41.26629 9.84263 36033 ft 470 kts 33°
2026-05-08 16:46 41.29343 9.86579 36027 ft 459 kts 18°
2026-05-08 16:47 41.32275 9.87947 36038 ft 448 kts
2026-05-08 16:47 41.38306 9.90004 36031 ft 449 kts
2026-05-08 16:48 41.44362 9.92072 36021 ft 450 kts
2026-05-08 16:48 41.50425 9.94231 36022 ft 451 kts
2026-05-08 16:49 41.56483 9.96424 36048 ft 451 kts
2026-05-08 16:49 41.62538 9.98625 36023 ft 452 kts
2026-05-08 16:50 41.68404 10.00754 36016 ft 452 kts
2026-05-08 16:50 41.74468 10.02966 36018 ft 451 kts
2026-05-08 16:51 41.80498 10.05158 36024 ft 450 kts
2026-05-08 16:51 41.86537 10.07366 36016 ft 449 kts
2026-05-08 16:52 41.92565 10.09589 36018 ft 448 kts
2026-05-08 16:52 41.98569 10.11793 36034 ft 447 kts
2026-05-08 16:53 42.06550 10.14734 36015 ft 446 kts
2026-05-08 16:53 42.12529 10.16943 36017 ft 445 kts
2026-05-08 16:54 42.18496 10.19148 36032 ft 444 kts
2026-05-08 16:54 42.24455 10.21357 36017 ft 444 kts
2026-05-08 16:55 42.30409 10.23570 36020 ft 444 kts
2026-05-08 16:55 42.36354 10.25782 36016 ft 444 kts
2026-05-08 16:56 42.42280 10.28206 36014 ft 446 kts 11°
2026-05-08 16:56 42.48192 10.30820 36014 ft 447 kts 11°
2026-05-08 16:57 42.54104 10.33425 36014 ft 447 kts 11°
2026-05-08 16:57 42.60030 10.36008 36019 ft 448 kts 11°
2026-05-08 16:58 42.65968 10.38585 36011 ft 448 kts 11°
2026-05-08 16:58 42.71903 10.41165 36008 ft 448 kts 11°
2026-05-08 16:59 42.77842 10.43757 36024 ft 448 kts 11°
2026-05-08 16:59 42.83772 10.46344 36000 ft 447 kts 11°
2026-05-08 17:00 42.89693 10.48938 36004 ft 446 kts 11°
2026-05-08 17:00 42.95599 10.51524 36025 ft 445 kts 11°
2026-05-08 17:01 43.01489 10.54114 36009 ft 444 kts 11°
2026-05-08 17:01 43.07369 10.56707 36000 ft 443 kts 11°
2026-05-08 17:02 43.13232 10.59293 36005 ft 442 kts 11°
2026-05-08 17:02 43.19070 10.61875 36007 ft 441 kts 11°
2026-05-08 17:03 43.24904 10.64458 36000 ft 440 kts 11°
2026-05-08 17:03 43.30718 10.67040 35999 ft 438 kts 11°
2026-05-08 17:04 43.36508 10.69614 36012 ft 438 kts 11°
2026-05-08 17:04 43.42299 10.72194 36004 ft 436 kts 11°
2026-05-08 17:05 43.48023 10.74751 36011 ft 435 kts 11°
2026-05-08 17:05 43.53822 10.77346 36019 ft 435 kts 11°
2026-05-08 17:06 43.59545 10.79912 36006 ft 436 kts 11°
2026-05-08 17:06 43.65351 10.82540 35968 ft 438 kts 11°
2026-05-08 17:07 43.68209 10.83884 35626 ft 439 kts 12°
2026-05-08 17:07 43.71069 10.85263 35317 ft 434 kts 11°
2026-05-08 17:07 43.73910 10.86633 34926 ft 430 kts 11°
2026-05-08 17:07 43.76726 10.87982 34552 ft 427 kts 11°
2026-05-08 17:08 43.79531 10.89318 34180 ft 425 kts 10°
2026-05-08 17:08 43.82317 10.90642 33763 ft 423 kts 10°
2026-05-08 17:08 43.85086 10.91957 33366 ft 419 kts
2026-05-08 17:08 43.87830 10.93255 33040 ft 415 kts 10°
2026-05-08 17:09 43.90550 10.94544 32679 ft 412 kts
2026-05-08 17:09 43.93252 10.95820 32310 ft 409 kts
2026-05-08 17:09 43.95933 10.97090 31963 ft 406 kts 10°
2026-05-08 17:09 43.98594 10.98352 31606 ft 403 kts
2026-05-08 17:10 44.01266 10.99144 31260 ft 381 kts 351°
2026-05-08 17:10 44.03804 10.98727 30985 ft 360 kts 336°
2026-05-08 17:10 44.06072 10.97456 30658 ft 344 kts 322°
2026-05-08 17:10 44.08114 10.95708 30323 ft 352 kts 320°
2026-05-08 17:11 44.10232 10.93799 29982 ft 374 kts 321°
2026-05-08 17:11 44.12476 10.91772 29542 ft 395 kts 322°
2026-05-08 17:11 44.14826 10.89671 29090 ft 404 kts 322°
2026-05-08 17:11 44.17201 10.87582 28665 ft 401 kts 323°
2026-05-08 17:12 44.19557 10.85517 28244 ft 400 kts 322°
2026-05-08 17:12 44.21912 10.83445 27841 ft 399 kts 323°
2026-05-08 17:12 44.24259 10.81381 27409 ft 399 kts 323°
2026-05-08 17:12 44.26603 10.79305 26999 ft 399 kts 323°
2026-05-08 17:13 44.28944 10.77227 26582 ft 398 kts 323°
2026-05-08 17:13 44.31249 10.75176 26178 ft 398 kts 323°
2026-05-08 17:13 44.33614 10.73063 25775 ft 398 kts 323°
2026-05-08 17:13 44.35915 10.71009 25360 ft 398 kts 323°
2026-05-08 17:14 44.38249 10.68924 24957 ft 398 kts 324°
2026-05-08 17:14 44.40579 10.66843 24554 ft 397 kts 324°
2026-05-08 17:14 44.42907 10.64759 24149 ft 397 kts 324°
2026-05-08 17:14 44.45232 10.62674 23700 ft 396 kts 324°
2026-05-08 17:15 44.47544 10.60599 23252 ft 392 kts 324°
2026-05-08 17:15 44.49824 10.58555 22828 ft 387 kts 324°
2026-05-08 17:15 44.52075 10.56541 22430 ft 381 kts 324°
2026-05-08 17:15 44.54296 10.54548 22057 ft 377 kts 324°
2026-05-08 17:16 44.56500 10.52566 21666 ft 375 kts 324°
2026-05-08 17:16 44.58686 10.50597 21294 ft 372 kts 324°
2026-05-08 17:16 44.60856 10.48640 20868 ft 370 kts 324°
2026-05-08 17:16 44.63021 10.46685 20405 ft 369 kts 324°
2026-05-08 17:17 44.65177 10.44738 19918 ft 368 kts 324°
2026-05-08 17:17 44.67324 10.42797 19459 ft 367 kts 324°
2026-05-08 17:17 44.69467 10.40858 18998 ft 365 kts 325°
2026-05-08 17:17 44.71601 10.38924 18478 ft 366 kts 325°
2026-05-08 17:18 44.73742 10.36983 17904 ft 366 kts 326°
2026-05-08 17:18 44.75885 10.35042 17308 ft 366 kts 326°
2026-05-08 17:18 44.78025 10.33096 16747 ft 366 kts 326°
2026-05-08 17:18 44.80162 10.31153 16144 ft 366 kts 326°
2026-05-08 17:19 44.82312 10.29251 15597 ft 365 kts 330°
2026-05-08 17:19 44.84656 10.27855 15055 ft 365 kts 340°
2026-05-08 17:19 44.87062 10.26719 14522 ft 364 kts 341°
2026-05-08 17:19 44.89468 10.25626 14029 ft 363 kts 341°
2026-05-08 17:20 44.91862 10.24541 13551 ft 359 kts 341°
2026-05-08 17:20 44.94227 10.23451 13047 ft 357 kts 341°
2026-05-08 17:20 44.96572 10.22349 12562 ft 354 kts 340°
2026-05-08 17:20 44.98900 10.21236 12071 ft 352 kts 340°
2026-05-08 17:21 45.01209 10.20124 11605 ft 350 kts 340°
2026-05-08 17:21 45.03504 10.19018 11146 ft 348 kts 341°
2026-05-08 17:21 45.05791 10.17918 10644 ft 345 kts 341°
2026-05-08 17:21 45.08033 10.16835 10145 ft 336 kts 341°
2026-05-08 17:22 45.10217 10.15777 9788 ft 329 kts 341°
2026-05-08 17:22 45.12362 10.14730 9469 ft 324 kts 341°
2026-05-08 17:22 45.14477 10.13702 9151 ft 319 kts 341°
2026-05-08 17:22 45.16557 10.12692 8901 ft 313 kts 341°
2026-05-08 17:23 45.18597 10.11697 8635 ft 307 kts 341°
2026-05-08 17:23 45.20603 10.10717 8373 ft 303 kts 341°
2026-05-08 17:23 45.22572 10.09756 8109 ft 295 kts 341°
2026-05-08 17:23 45.24488 10.08821 7853 ft 289 kts 341°
2026-05-08 17:24 45.26380 10.07897 7605 ft 287 kts 341°
2026-05-08 17:24 45.28259 10.06980 7358 ft 284 kts 341°
2026-05-08 17:24 45.30120 10.06071 7111 ft 282 kts 341°
2026-05-08 17:24 45.31970 10.05165 6873 ft 281 kts 341°
2026-05-08 17:25 45.33812 10.04263 6624 ft 279 kts 341°
2026-05-08 17:25 45.35644 10.03365 6382 ft 278 kts 341°
2026-05-08 17:25 45.37460 10.02473 6127 ft 275 kts 341°
2026-05-08 17:25 45.39207 10.01616 5989 ft 261 kts 341°
2026-05-08 17:26 45.40880 10.00796 5964 ft 245 kts 341°
2026-05-08 17:26 45.42449 10.00024 5953 ft 234 kts 341°
2026-05-08 17:26 45.43956 9.99284 5993 ft 231 kts 341°
2026-05-08 17:26 45.45487 9.98532 5986 ft 233 kts 341°
2026-05-08 17:27 45.47026 9.97773 5973 ft 234 kts 341°
2026-05-08 17:27 45.48580 9.97009 5703 ft 240 kts 341°
2026-05-08 17:27 45.50179 9.96290 5312 ft 241 kts 351°
2026-05-08 17:27 45.51843 9.96182 4966 ft 238 kts
2026-05-08 17:28 45.53487 9.96156 4647 ft 235 kts 359°
2026-05-08 17:28 45.55098 9.96100 4444 ft 227 kts 358°
2026-05-08 17:28 45.56648 9.96036 4223 ft 220 kts 358°
2026-05-08 17:28 45.58151 9.95972 4039 ft 212 kts 358°
2026-05-08 17:29 45.59642 9.95900 3940 ft 216 kts 358°
2026-05-08 17:29 45.61117 9.95697 3814 ft 210 kts 341°
2026-05-08 17:29 45.62178 9.94437 3676 ft 197 kts 295°
2026-05-08 17:29 45.62615 9.92624 3597 ft 193 kts 290°
2026-05-08 17:30 45.63094 9.90832 3383 ft 194 kts 287°
2026-05-08 17:30 45.63416 9.88980 3137 ft 190 kts 283°
2026-05-08 17:30 45.63731 9.87174 2870 ft 184 kts 284°
2026-05-08 17:30 45.64048 9.85454 2645 ft 174 kts 284°
2026-05-08 17:31 45.64353 9.83807 2416 ft 169 kts 284°
2026-05-08 17:31 45.64645 9.82233 2184 ft 159 kts 284°
2026-05-08 17:31 45.64926 9.80715 1997 ft 160 kts 284°
2026-05-08 17:31 45.65208 9.79196 1782 ft 156 kts 284°
2026-05-08 17:32 45.65477 9.77724 1609 ft 151 kts 284°
2026-05-08 17:32 45.65747 9.76280 1427 ft 150 kts 284°
2026-05-08 17:32 45.66014 9.74832 1199 ft 152 kts 284°
2026-05-08 17:32 45.66287 9.73375 983 ft 152 kts 284°
2026-05-08 17:33 45.66550 9.71947 800 ft 148 kts 284°
2026-05-08 17:33 45.66790 9.70659 786 ft 110 kts 284°
2026-05-08 17:33 45.66886 9.70015 786 ft 25 kts 252°
2026-05-08 17:33 45.66846 9.69899 786 ft 7 kts 239°
2026-05-08 17:34 45.66832 9.69864 786 ft 2 kts 239°
2026-05-08 17:34 45.66825 9.69848 786 ft 2 kts 238°
2026-05-08 17:34 45.66818 9.69831 786 ft 2 kts 238°
2026-05-08 17:34 45.66806 9.69804 786 ft 6 kts 239°
2026-05-08 17:35 45.66797 9.69721 786 ft 11 kts 275°
2026-05-08 17:35 45.66809 9.69630 786 ft 6 kts 266°
2026-05-08 17:35 45.66793 9.69613 786 ft 3 kts 189°
2026-05-08 17:35 45.66771 9.69606 786 ft 4 kts 193°
2026-05-08 17:36 45.66732 9.69592 786 ft 5 kts 194°
2026-05-08 17:36 45.66723 9.69588 786 ft 0 kts 194°